User: anonymous   Login
Location: Unspecified
(0.0000°N, 0.0000°E)
Time: 05:25:30
(UTC+01:00)
Language:

ATLAS 3B CENTAUR R/B - Orbit

View from above orbital plane
View from above orbital plane
View from above satellite
View from above satellite

Ground track
Ground track

The orbit data is extracted from the following two-line orbital elements,

1 28118U 03057B   15059.19548406  .00064796  00000-0  12731-2 0  9990
2 28118 028.1603 329.4789 3696959 227.5068 329.5202 08.09670679215835
Epoch (UTC): 28 February 2015 04:41:29
Eccentricity: 0.3696959
inclination: 28.1603°
perigee height: 225 km
apogee height: 7971 km
right ascension of ascending node: 329.4789°
argument of perigee: 227.5068°
revolutions per day: 8.09670679
mean anomaly at epoch: 329.5202°
orbit number at epoch: 21583

The dashed part of the orbit path shows where the satellite is in the earth's shadow,  

DLR